STARLINK-5302, 56556

Orbit data source: Space-Track

STARLINK-5302, 56556 is a payload satellite owned by SpaceX/Seattle (US) in LEO that was launched on Sun, 14 May 2023 UTC via an FALCON 9 launch vehicle from the Air Force Eastern Test Range (AFETR). Payload-class satellites include a variety of spacecraft equipped with specific instruments for various scientific and technological missions. These include communications satellites like Starlink; space stations such as the ISS; scientific satellites like the Hubble; Earth observation satellites from companies like Planet Labs, Umbra, and HawkEye 360; GPS; miniature CubeSats for education and research; and military/defense satellites.

Loading next visibility...
Identifier
56556, 2023-065BF
Orbit
LEO
Country
Flag of USUS
Related business
Manufacturer
SpaceX/Seattle
Mission
Operational Commercial Communications
Bus & Motor
STARLINK, Unknown motor
Mass
305 kg wet, ~290 kg dry
Launch date (UTC)
2023-05-14 (3 years ago)
Launch vehicle
FALCON 9
Launch site
Air Force Eastern Test Range (AFETR)
Object type
Payload
Rocket body
Debris
Shape & HBR
Box + 1 Pan, 10.1 m
Radar Cross Section
11.087 m², Large (>1 m²)

Expand to show TLE details & history
Last TLE update: 3 days ago

TLE from 3 days ago
0 STARLINK-5302
1 56556U 23065BF  26170.62689843  .00000235  00000-0  18074-4 0  9999
2 56556  43.0028   7.7622 0001602 255.1104 104.9570 15.27577660172065
Epoch: 2026-06-19T15:02Z
TLE epoch observation values (Epoch: 2026-06-19T15:02:44.024Z)
Latitude
-0.00003°
Longitude
-125.77443°
Altitude
483.116 km
Speed
7.626 km/s
True Right ascension
00h 31m 02s
True Declination
0° 00' 00"
Sunlit
Object was in daylight at epoch
Visualization orbit readout
Latitude
Unknown
Longitude
Unknown
Altitude
Unknown
Speed
Unknown
Apparent Right ascension
Unknown
Apparent Declination
Unknown
Sunlit
N/A
Visualization observer readout
Local Sidereal Time
21:31:19
Azimuth
Unknown
Elevation
Unknown
Doppler factor
Unknown
Orbital elements
Apogee altitude
486.1 km
Perigee altitude
483.901 km
Semi-major axis
6,863.138 km
Eccentricity
0.00016
Inclination
43.0028°
RAAN
7.7622°
Arg. of periapsis
255.1104°
True anomaly
104.97473°
Mean anomaly
104.957°
Eccentric anomaly
104.96587°
Mean motion
3.81732 °/min
Orbital period
94.31 mins
BSTAR
0.000018074
Loading maneuver chart data...
Computing Atmospheric mass density...
Loading historical data...
Loading historical data...
Loading historical data...
Loading historical data...
Loading historical data...
Loading historical data...
Loading historical data...

Documentation

Showing up to 5 results
|